Regional Weather Roundup
Issued by NWS

Home | Current Version | Previous Version | Graphics & Text | Print | Product List | Glossary On
Versions: 1 2 3 4 5 6 7 8 9 10 11 12 13 14 15 16 17 18 19 20 21 22 23 24 25 26 27 28 29 30 31 32 33 34 35 36 37 38 39 40 41 42 43 44 45 46 47 48 49 50
000
ASUS43 KLOT 022225
RWRIL

ILLINOIS REGIONAL WEATHER ROUNDUP
NATIONAL WEATHER SERVICE CHICAGO/ROMEOVILLE IL
500 PM CDT WED SEP 02 2015

NOTE: "FAIR" INDICATES FEW OR NO CLOUDS BELOW 12,000 FEET WITH NO
SIGNIFICANT WEATHER AND/OR OBSTRUCTIONS TO VISIBILITY.

* THESE STATIONS ARE NOT UNDER NWS QUALITY CONTROL. THEY ALSO MAY NOT
  REPORT WEATHER SUCH AS PRECIPITATION OR FOG.

ILZ001-002-007-009-015-016-024-022300-
NORTHWEST ILLINOIS

CITY           SKY/WX    TMP DP  RH WIND       PRES   REMARKS
MOLINE         CLOUDY    86  70  58 S8        29.94F HX  90
STERLING*      CLOUDY    86  72  62 W5        29.94F HX  92
SAVANNA*       PTSUNNY   86  67  52 S10       29.94F HX  88
$$

ILZ003-004-008-010-011-017-018-022300-
NORTH CENTRAL ILLINOIS

CITY           SKY/WX    TMP DP  RH WIND       PRES   REMARKS
ROCKFORD       CLOUDY    84  70  62 SW8       29.97F HX  88
FREEPORT*      PTSUNNY   83  68  61 SW10      29.98F HX  86
ROCHELLE*      PTSUNNY   83  72  69 SW5       29.97F HX  87
DE KALB*       CLOUDY    84  72  68 S9        29.98F HX  89
PERU*          PTSUNNY   87  65  47 SW9       29.97F HX  88
$$

ILZ005-006-012>014-019>023-022300-
NORTHEAST ILLINOIS

CITY           SKY/WX    TMP DP  RH WIND       PRES   REMARKS
CHICAGO-OHARE  PTSUNNY   88  67  49 SW12      29.95F HX  91
CHICAGO-MIDWAY PTSUNNY   90  67  46 SW14      29.95F HX  93
AURORA         CLOUDY    85  70  60 SW8       29.97F HX  89
LANSING*       MOSUNNY   87  68  52 SW10      29.97F HX  90
JOLIET*        PTSUNNY   89  70  54 SW5       29.97F HX  94
WAUKEGAN       PTSUNNY   84  69  60 SW8       29.95F HX  88
DUPAGE AIRPORT PTSUNNY   87  68  52 SW13      29.96F HX  90
KANKAKEE*      MOSUNNY   88  71  56 SW9       29.99F HX  93
WHEELING       PTSUNNY   89  65  44 SW9       29.96F HX  91
MORRIS*        PTSUNNY   87  70  56 SW5       29.95F HX  92
ROMEOVILLE*    PTSUNNY   85  67  54 W8        29.97F HX  88
NORTHERLY ISL    N/A     90  63  40 S8          N/A  HX  91
$$

LMZ740>746-022300-
SOUTHERN LAKE MICHIGAN

STATION/POSITION SKY/WX   TEMP    WIND        PRES    VSBY  WAVE
                          AIR SEA DIR/SP/G                  HT/PER
                          (F)     (DEG/KT/KT) (MB)    (MI)  (FT/S)
SOUTHERN BUOY              74 72  170/  8/  8 1013.7F         1
WILMETTE HARBOR            73 63  260/  4/  6   N/A           1
HARRISON CRIB              87     220/  9/ 15   N/A
BURNHAM HARBOR             89     180/  6/ 14   N/A
CALUMET HARBOR             88     220/  8/ 12   N/A
BURNS HARBOR               87     210/ 10/ 15 1015.6F
MICHIGAN CITY              81      20/  4/  4   N/A
MICHIGAN CITY 6N           81 77  140/  4/  6   N/A           0
ST. JOSEPH                 80 75  130/  2/  4   N/A           1
$$

ILZ025>027-034>036-040-047-049-050-058-095>099-022300-
WEST-CENTRAL ILLINOIS

CITY           SKY/WX    TMP DP  RH WIND       PRES   REMARKS
QUINCY         FAIR      86  66  51 S8        29.97F HX  88
GALESBURG*     CLOUDY    86  71  59 S6        29.97F HX  91
MACOMB*        PTSUNNY   89  67  47 S6        29.99F HX  92
JACKSONVILLE*  PTSUNNY   90  68  48 S7        29.98S HX  93
PITTSFIELD*    PTSUNNY   88  68  51 S5        30.00S HX  91
$$

ILZ028>032-037-038-041>044-048-051>054-059>061-022300-
CENTRAL ILLINOIS

CITY           SKY/WX    TMP DP  RH WIND       PRES   REMARKS
PONTIAC        PTSUNNY   88  70  53 SW7       29.98F HX  93
BLOOMINGTON    PTSUNNY   90  68  48 SW9       30.00F HX  94
DECATUR        MOSUNNY   91  65  41 SW13      29.99F HX  93
PEORIA         PTSUNNY   90  67  46 SW5       29.97F HX  93
LACON*         CLOUDY    86  67  53 SW5       29.96F HX  89
LINCOLN*       PTSUNNY   91  65  42 S5        29.97S HX  93
SPRINGFIELD    PTSUNNY   89  67  47 S8        29.99S HX  92
TAYLORVILLE    MOSUNNY   88  68  51 S6        29.99F HX  91
$$

ILZ033-039-045-046-055>057-062-063-022300-
EAST-CENTRAL ILLINOIS

CITY           SKY/WX    TMP DP  RH WIND       PRES   REMARKS
CHAMPAIGN      MOSUNNY   88  67  49 SW7       30.00F HX  91
MATTOON        MOSUNNY   87  66  49 S8        30.00F HX  89
PARIS*         MOSUNNY   88  68  52 SW8       30.02F HX  91
$$

ILZ079-100>102-022300-
SOUTHWEST ILLINOIS

CITY           SKY/WX    TMP DP  RH WIND       PRES   REMARKS
ALTON          PTSUNNY   86  68  54 S8        29.98F HX  89
BELLEVILLE     SUNNY     89  71  53 VRB3      29.97F HX  95
CAHOKIA*       MOSUNNY   90  66  45 S8        29.97F HX  92
SPARTA*        SUNNY     88  69  53 S8        30.00F HX  92
$$

ILZ064>066-069>071-074>076-080>082-084>086-088>090-092>094-022300-
SOUTH-CENTRAL ILLINOIS

CITY           SKY/WX    TMP DP  RH WIND       PRES   REMARKS
CARBONDALE     SUNNY     88  67  49 S6        30.00F HX  91
CAIRO*         SUNNY     89  72  56 SE3       30.00F HX  95
EFFINGHAM*     MOSUNNY   89  65  44 S5        30.02S HX  90
MARION         MOSUNNY   90  70  51 SW8       30.02F HX  95
MT. VERNON     SUNNY     90  68  48 S6        30.01F HX  93
CENTRALIA*     SUNNY     91  70  51 S5        29.99F HX  96
SALEM*         MOSUNNY   90  67  46 SW6       30.00S HX  93
METROPOLIS*    SUNNY     90  71  53 CALM      30.01F HX  96
$$

ILZ067-068-072-073-078-083-087-091-022300-
SOUTHEAST ILLINOIS

CITY           SKY/WX    TMP DP  RH WIND       PRES   REMARKS
LAWRENCEVILLE  SUNNY     91  66  43 SW7       30.00F HX  93
FLORA*         SUNNY     90  63  41 SW7       30.00F HX  91
FAIRFIELD*     SUNNY     89  69  50 SW7       29.99F HX  93
HARRISBURG*    MOSUNNY   91  68  46 S3        30.01F HX  94
ROBINSON*      SUNNY     89  67  47 SW5       30.01F HX  92
CARMI*         SUNNY     90  70  51 SW5       30.00F HX  95
$$

ABBREVIATIONS USED IN REMARKS
   TC - TEMPERATURE IN CELSIUS
  WCI - WIND CHILL INDEX
   HX - HEAT INDEX
  VSB - VISIBILITY
$$




USA.gov is the U.S. government's official web portal to all federal, state and local government web resources and services.